TimePST,TemperatureF,Dew PointF,Humidity,Sea Level PressureIn,VisibilityMPH,Wind Direction,Wind SpeedMPH,Gust SpeedMPH,PrecipitationIn,Events,Conditions,WindDirDegrees,DateUTC
12:53 AM,33.1,28.9,85,30.15,10.0,ENE,8.1,-,N/A,,Clear,70,2013-01-03 08:53:00
1:53 AM,33.1,27.0,78,30.14,10.0,ENE,10.4,-,N/A,,Clear,70,2013-01-03 09:53:00
2:53 AM,34.0,28.0,79,30.14,10.0,East,9.2,-,N/A,,Clear,80,2013-01-03 10:53:00
3:53 AM,32.0,27.0,82,30.13,10.0,ENE,10.4,-,N/A,,Clear,70,2013-01-03 11:53:00
4:53 AM,32.0,27.0,82,30.11,10.0,ENE,9.2,-,N/A,,Clear,70,2013-01-03 12:53:00
5:53 AM,32.0,27.0,82,30.09,10.0,ENE,11.5,-,N/A,,Clear,70,2013-01-03 13:53:00
6:53 AM,32.0,26.1,79,30.09,10.0,ENE,11.5,-,N/A,,Clear,70,2013-01-03 14:53:00
7:53 AM,32.0,26.1,79,30.09,10.0,East,11.5,-,N/A,,Clear,80,2013-01-03 15:53:00
8:53 AM,32.0,26.1,79,30.09,10.0,ENE,12.7,-,N/A,,Clear,70,2013-01-03 16:53:00
9:53 AM,35.1,28.0,76,30.10,10.0,ENE,11.5,-,N/A,,Clear,70,2013-01-03 17:53:00
10:53 AM,39.9,28.9,65,30.10,10.0,East,9.2,-,N/A,,Clear,80,2013-01-03 18:53:00
11:53 AM,42.1,30.9,65,30.09,10.0,East,9.2,-,N/A,,Clear,90,2013-01-03 19:53:00
12:53 PM,43.0,27.0,53,30.08,10.0,NE,11.5,-,N/A,,Overcast,50,2013-01-03 20:53:00
1:53 PM,43.0,28.0,56,30.06,10.0,NE,10.4,-,N/A,,Overcast,50,2013-01-03 21:53:00
2:53 PM,42.1,28.0,58,30.06,10.0,NE,11.5,-,N/A,,Overcast,50,2013-01-03 22:53:00
3:53 PM,41.0,30.0,65,30.06,10.0,ENE,10.4,-,0.00,Rain,Light Rain,70,2013-01-03 23:53:00
4:53 PM,39.9,33.1,77,30.05,10.0,ENE,12.7,-,0.03,Rain,Light Rain,60,2013-01-04 00:53:00
5:40 PM,39.2,33.8,81,30.04,9.0,NE,13.8,23.0,0.00,Rain,Light Rain,40,2013-01-04 01:40:00
5:53 PM,39.0,34.0,82,30.05,10.0,NE,13.8,19.6,0.00,,Overcast,50,2013-01-04 01:53:00
6:53 PM,37.9,34.0,86,30.05,6.0,NE,12.7,-,0.00,Rain,Light Rain,40,2013-01-04 02:53:00
7:53 PM,37.9,35.1,89,30.06,10.0,ENE,13.8,-,N/A,,Overcast,60,2013-01-04 03:53:00
8:31 PM,39.2,37.4,93,30.06,5.0,ENE,11.5,-,0.01,Rain,Light Rain,60,2013-01-04 04:31:00
8:53 PM,39.0,37.0,93,30.08,5.0,NE,13.8,-,0.01,,Overcast,50,2013-01-04 04:53:00
9:53 PM,39.9,37.9,93,30.10,3.0,ENE,10.4,-,0.01,Rain,Light Rain,60,2013-01-04 05:53:00
10:15 PM,39.2,39.2,100,30.10,3.0,ENE,11.5,-,0.00,,Overcast,60,2013-01-04 06:15:00
10:32 PM,39.2,39.2,100,30.11,2.5,ENE,8.1,-,0.01,,Overcast,60,2013-01-04 06:32:00
10:53 PM,39.9,39.0,97,30.13,1.8,ENE,8.1,-,0.01,,Overcast,70,2013-01-04 06:53:00
11:24 PM,39.2,39.2,100,30.14,2.0,ENE,5.8,-,0.00,,Overcast,60,2013-01-04 07:24:00
11:30 PM,39.2,39.2,100,30.14,1.8,NE,6.9,-,0.00,,Overcast,50,2013-01-04 07:30:00
11:53 PM,41.0,39.9,96,30.15,2.0,NE,5.8,-,0.01,Rain,Light Rain,50,2013-01-04 07:53:00